Time,TemperatureF,DewpointF,PressureIn,WindDirection,WindDirectionDegrees,WindSpeedMPH,WindSpeedGustMPH,Humidity,HourlyPrecipIn,Conditions,Clouds,dailyrainin,SoftwareType,DateUTC
2013-05-23 06:23:00,72.7,68.3,29.97,North,0,0.0,0.0,86,0.00,,,0.00,VWS V14.01,2013-05-23 10:23:00,
2013-05-23 06:25:00,72.7,68.3,29.97,North,0,0.0,0.0,86,0.00,,,0.00,VWS V14.01,2013-05-23 10:25:00,
2013-05-23 06:26:00,72.7,68.3,29.97,North,0,0.0,0.0,86,0.00,,,0.00,VWS V14.01,2013-05-23 10:26:00,
2013-05-23 06:29:00,72.7,68.3,29.97,North,0,0.0,0.0,86,0.00,,,0.00,VWS V14.01,2013-05-23 10:29:00,
2013-05-23 06:30:00,72.7,68.3,29.97,North,0,0.0,0.0,86,0.00,,,0.00,VWS V14.01,2013-05-23 10:30:00,
2013-05-23 06:31:00,72.7,68.3,29.97,North,0,0.0,0.0,86,0.00,,,0.00,VWS V14.01,2013-05-23 10:31:00,
2013-05-23 06:33:00,72.5,68.1,29.97,North,0,0.0,0.0,86,0.00,,,0.00,VWS V14.01,2013-05-23 10:33:00,
2013-05-23 06:36:00,72.5,68.1,29.97,North,0,0.0,0.0,86,0.00,,,0.00,VWS V14.01,2013-05-23 10:36:00,
2013-05-23 06:37:00,72.5,68.1,29.97,North,0,0.0,0.0,86,0.00,,,0.00,VWS V14.01,2013-05-23 10:37:00,
2013-05-23 06:40:00,72.5,68.1,29.97,North,0,0.0,0.0,86,0.00,,,0.00,VWS V14.01,2013-05-23 10:40:00,
2013-05-23 06:42:00,72.5,68.1,29.97,North,0,0.0,0.0,86,0.00,,,0.00,VWS V14.01,2013-05-23 10:42:00,
2013-05-23 06:43:00,72.5,68.1,29.97,North,0,0.0,0.0,86,0.00,,,0.00,VWS V14.01,2013-05-23 10:43:00,
2013-05-23 06:46:00,72.5,68.1,29.97,North,0,0.0,0.0,86,0.00,,,0.00,VWS V14.01,2013-05-23 10:46:00,
2013-05-23 06:47:00,72.7,68.3,29.97,North,0,0.0,0.0,86,0.00,,,0.00,VWS V14.01,2013-05-23 10:47:00,
2013-05-23 06:49:00,72.7,68.3,29.97,North,0,0.0,0.0,86,0.00,,,0.00,VWS V14.01,2013-05-23 10:49:00,
2013-05-23 06:51:00,72.7,68.3,29.97,North,0,0.0,0.0,86,0.00,,,0.00,VWS V14.01,2013-05-23 10:51:00,
2013-05-23 06:52:00,72.7,68.3,29.97,North,0,0.0,0.0,86,0.00,,,0.00,VWS V14.01,2013-05-23 10:52:00,
2013-05-23 06:53:00,72.7,67.9,29.97,North,0,0.0,0.0,85,0.00,,,0.00,VWS V14.01,2013-05-23 10:53:00,
2013-05-23 06:55:00,72.5,67.7,29.97,North,0,0.0,0.0,85,0.00,,,0.00,VWS V14.01,2013-05-23 10:55:00,
2013-05-23 06:59:00,72.7,68.3,30.00,North,0,0.0,0.0,86,0.00,,,0.00,VWS V14.01,2013-05-23 10:59:00,
2013-05-23 07:00:00,72.7,68.3,30.00,North,0,0.0,0.0,86,0.00,,,0.00,VWS V14.01,2013-05-23 11:00:00,
2013-05-23 07:02:00,72.7,68.3,30.00,North,0,0.0,0.0,86,0.00,,,0.00,VWS V14.01,2013-05-23 11:02:00,
2013-05-23 07:03:00,72.9,68.4,30.00,North,0,0.0,0.0,86,0.00,,,0.00,VWS V14.01,2013-05-23 11:03:00,
2013-05-23 07:07:00,72.9,68.4,30.00,North,0,0.0,0.0,86,0.00,,,0.00,VWS V14.01,2013-05-23 11:07:00,
2013-05-23 07:08:00,72.9,68.4,30.00,North,0,0.0,0.0,86,0.00,,,0.00,VWS V14.01,2013-05-23 11:08:00,
2013-05-23 07:09:00,72.9,68.4,30.00,North,0,0.0,0.0,86,0.00,,,0.00,VWS V14.01,2013-05-23 11:09:00,
2013-05-23 07:12:00,72.9,68.4,30.00,North,0,0.0,0.0,86,0.00,,,0.00,VWS V14.01,2013-05-23 11:12:00,
2013-05-23 07:13:00,73.0,68.6,30.00,North,0,0.0,0.0,86,0.00,,,0.00,VWS V14.01,2013-05-23 11:13:00,
2013-05-23 07:14:00,73.0,68.6,30.00,North,0,0.0,0.0,86,0.00,,,0.00,VWS V14.01,2013-05-23 11:14:00,
2013-05-23 07:17:00,73.0,68.6,30.00,North,0,0.0,0.0,86,0.00,,,0.00,VWS V14.01,2013-05-23 11:17:00,
2013-05-23 07:19:00,73.0,68.6,30.00,North,0,0.0,0.0,86,0.00,,,0.00,VWS V14.01,2013-05-23 11:19:00,
2013-05-23 07:20:00,73.0,68.9,30.00,North,0,0.0,0.0,87,0.00,,,0.00,VWS V14.01,2013-05-23 11:20:00,
2013-05-23 07:21:00,73.2,69.1,30.00,North,0,0.0,0.0,87,0.00,,,0.00,VWS V14.01,2013-05-23 11:21:00,
2013-05-23 07:22:00,73.2,69.1,30.00,North,0,0.0,0.0,87,0.00,,,0.00,VWS V14.01,2013-05-23 11:22:00,
2013-05-23 07:24:00,73.2,69.1,30.00,North,0,0.0,0.0,87,0.00,,,0.00,VWS V14.01,2013-05-23 11:24:00,
2013-05-23 07:25:00,73.4,69.3,30.00,North,0,0.0,0.0,87,0.00,,,0.00,VWS V14.01,2013-05-23 11:25:00,
2013-05-23 07:27:00,73.4,69.3,30.00,North,0,0.0,0.0,87,0.00,,,0.00,VWS V14.01,2013-05-23 11:27:00,
2013-05-23 07:30:00,73.6,69.5,30.00,North,0,0.0,0.0,87,0.00,,,0.00,VWS V14.01,2013-05-23 11:30:00,
2013-05-23 07:33:00,73.9,69.8,30.00,North,0,0.0,0.0,87,0.00,,,0.00,VWS V14.01,2013-05-23 11:33:00,
2013-05-23 07:34:00,73.9,69.8,30.00,North,0,0.0,0.0,87,0.00,,,0.00,VWS V14.01,2013-05-23 11:34:00,
2013-05-23 07:35:00,73.9,69.8,30.00,North,0,0.0,0.0,87,0.00,,,0.00,VWS V14.01,2013-05-23 11:35:00,
2013-05-23 07:38:00,74.1,70.3,30.00,North,0,0.0,0.0,88,0.00,,,0.00,VWS V14.01,2013-05-23 11:38:00,
2013-05-23 07:40:00,74.3,70.5,30.00,North,0,0.0,0.0,88,0.00,,,0.00,VWS V14.01,2013-05-23 11:40:00,
2013-05-23 07:41:00,74.3,70.5,30.00,North,0,0.0,0.0,88,0.00,,,0.00,VWS V14.01,2013-05-23 11:41:00,
2013-05-23 07:43:00,74.5,70.7,30.00,North,0,0.0,0.0,88,0.00,,,0.00,VWS V14.01,2013-05-23 11:43:00,
2013-05-23 07:44:00,74.5,70.7,30.00,North,0,0.0,0.0,88,0.00,,,0.00,VWS V14.01,2013-05-23 11:44:00,
2013-05-23 07:45:00,74.5,70.7,30.00,North,0,0.0,0.0,88,0.00,,,0.00,VWS V14.01,2013-05-23 11:45:00,
2013-05-23 07:49:00,74.8,71.1,30.00,North,0,0.0,0.0,88,0.00,,,0.00,VWS V14.01,2013-05-23 11:49:00,
2013-05-23 07:50:00,74.8,71.1,30.00,North,0,0.0,0.0,88,0.00,,,0.00,VWS V14.01,2013-05-23 11:50:00,
2013-05-23 07:52:00,75.0,71.2,30.00,North,0,0.0,0.0,88,0.00,,,0.00,VWS V14.01,2013-05-23 11:52:00,
2013-05-23 07:54:00,75.0,71.2,30.00,North,0,0.0,0.0,88,0.00,,,0.00,VWS V14.01,2013-05-23 11:54:00,
2013-05-23 07:56:00,75.2,71.4,30.00,North,0,0.0,0.0,88,0.00,,,0.00,VWS V14.01,2013-05-23 11:56:00,
2013-05-23 07:58:00,75.2,71.4,30.03,North,0,0.0,0.0,88,0.00,,,0.00,VWS V14.01,2013-05-23 11:58:00,
2013-05-23 07:59:00,75.4,71.6,30.03,North,0,0.0,0.0,88,0.00,,,0.00,VWS V14.01,2013-05-23 11:59:00,
2013-05-23 08:00:00,75.4,71.6,30.03,North,0,0.0,0.0,88,0.00,,,0.00,VWS V14.01,2013-05-23 12:00:00,
2013-05-23 08:03:00,75.6,71.4,30.03,North,0,0.0,0.0,87,0.00,,,0.00,VWS V14.01,2013-05-23 12:03:00,
2013-05-23 08:05:00,75.7,71.6,30.03,North,0,0.0,0.0,87,0.00,,,0.00,VWS V14.01,2013-05-23 12:05:00,
2013-05-23 08:06:00,75.7,71.6,30.03,North,0,0.0,0.0,87,0.00,,,0.00,VWS V14.01,2013-05-23 12:06:00,
2013-05-23 08:07:00,75.7,71.6,30.03,North,0,0.0,0.0,87,0.00,,,0.00,VWS V14.01,2013-05-23 12:07:00,
2013-05-23 08:09:00,75.9,71.4,30.03,North,0,0.0,0.0,86,0.00,,,0.00,VWS V14.01,2013-05-23 12:09:00,
2013-05-23 08:13:00,76.3,71.4,30.03,North,0,0.0,0.0,85,0.00,,,0.00,VWS V14.01,2013-05-23 12:13:00,
2013-05-23 08:14:00,76.3,71.4,30.03,North,0,0.0,0.0,85,0.00,,,0.00,VWS V14.01,2013-05-23 12:14:00,
2013-05-23 08:16:00,76.5,71.6,30.03,North,0,0.0,0.0,85,0.00,,,0.00,VWS V14.01,2013-05-23 12:16:00,
2013-05-23 08:17:00,76.6,71.4,30.03,North,0,0.0,0.0,84,0.00,,,0.00,VWS V14.01,2013-05-23 12:17:00,
2013-05-23 08:18:00,76.6,71.4,30.03,North,0,0.0,0.0,84,0.00,,,0.00,VWS V14.01,2013-05-23 12:18:00,
2013-05-23 08:22:00,76.8,70.9,30.03,North,0,0.0,0.0,82,0.00,,,0.00,VWS V14.01,2013-05-23 12:22:00,
2013-05-23 08:24:00,77.0,70.4,30.03,North,0,0.0,0.0,80,0.00,,,0.00,VWS V14.01,2013-05-23 12:24:00,
2013-05-23 08:25:00,77.0,70.4,30.03,North,0,0.0,0.0,80,0.00,,,0.00,VWS V14.01,2013-05-23 12:25:00,
2013-05-23 08:28:00,77.2,69.8,30.03,North,0,0.0,0.0,78,0.00,,,0.00,VWS V14.01,2013-05-23 12:28:00,
2013-05-23 08:31:00,77.4,69.2,30.03,North,0,0.0,0.0,76,0.00,,,0.00,VWS V14.01,2013-05-23 12:31:00,
2013-05-23 08:33:00,77.5,69.0,30.03,North,0,0.0,0.0,75,0.00,,,0.00,VWS V14.01,2013-05-23 12:33:00,
2013-05-23 08:37:00,77.9,68.6,30.03,North,0,0.0,0.0,73,0.00,,,0.00,VWS V14.01,2013-05-23 12:37:00,
2013-05-23 08:38:00,78.1,68.7,30.03,North,0,0.0,0.0,73,0.00,,,0.00,VWS V14.01,2013-05-23 12:38:00,
2013-05-23 08:39:00,78.1,68.7,30.03,North,0,0.0,0.0,73,0.00,,,0.00,VWS V14.01,2013-05-23 12:39:00,
2013-05-23 08:42:00,78.3,68.1,30.03,North,0,0.0,0.0,71,0.00,,SCT025,0.00,VWS V14.01,2013-05-23 12:42:00,
2013-05-23 08:43:00,78.4,67.8,30.03,North,0,0.0,0.0,70,0.00,,SCT025,0.00,VWS V14.01,2013-05-23 12:43:00,
2013-05-23 08:47:00,78.6,67.6,30.03,North,0,0.0,0.0,69,0.00,,SCT025,0.00,VWS V14.01,2013-05-23 12:47:00,
2013-05-23 08:48:00,78.8,67.8,30.03,North,0,0.0,0.0,69,0.00,,SCT025,0.00,VWS V14.01,2013-05-23 12:48:00,
2013-05-23 08:53:00,79.0,67.1,30.03,North,0,0.0,0.0,67,0.00,,SCT025,0.00,VWS V14.01,2013-05-23 12:53:00,
2013-05-23 08:54:00,79.0,67.1,30.03,North,0,0.0,0.0,67,0.00,,SCT025,0.00,VWS V14.01,2013-05-23 12:54:00,
2013-05-23 08:56:00,79.2,67.3,30.03,North,0,0.0,0.0,67,0.00,,SCT025,0.00,VWS V14.01,2013-05-23 12:56:00,
2013-05-23 08:58:00,79.2,67.3,30.03,North,0,0.0,0.0,67,0.00,,SCT025,0.00,VWS V14.01,2013-05-23 12:58:00,
2013-05-23 09:00:00,79.3,67.4,30.03,North,0,0.0,0.0,67,0.00,,SCT025,0.00,VWS V14.01,2013-05-23 13:00:00,
2013-05-23 09:01:00,79.3,67.0,30.03,North,0,0.0,0.0,66,0.00,,SCT025,0.00,VWS V14.01,2013-05-23 13:01:00,
2013-05-23 09:03:00,79.3,67.0,30.03,North,0,0.0,0.0,66,0.00,,SCT025,0.00,VWS V14.01,2013-05-23 13:03:00,
2013-05-23 09:06:00,79.2,65.9,30.03,North,0,0.0,0.0,64,0.00,,SCT025,0.00,VWS V14.01,2013-05-23 13:06:00,
2013-05-23 09:08:00,79.2,65.9,30.03,North,0,0.0,0.0,64,0.00,,SCT025,0.00,VWS V14.01,2013-05-23 13:08:00,
2013-05-23 09:09:00,79.2,65.9,30.03,North,0,0.0,0.0,64,0.00,,SCT025,0.00,VWS V14.01,2013-05-23 13:09:00,
2013-05-23 09:10:00,79.0,65.8,30.03,North,0,0.0,0.0,64,0.00,,SCT025,0.00,VWS V14.01,2013-05-23 13:10:00,
2013-05-23 09:14:00,78.8,65.6,30.03,North,0,0.0,0.0,64,0.00,,SCT025,0.00,VWS V14.01,2013-05-23 13:14:00,
2013-05-23 09:15:00,78.8,65.6,30.03,North,0,0.0,0.0,64,0.00,,SCT025,0.00,VWS V14.01,2013-05-23 13:15:00,
2013-05-23 09:16:00,78.8,65.6,30.03,North,0,0.0,0.0,64,0.00,,SCT025,0.00,VWS V14.01,2013-05-23 13:16:00,
2013-05-23 09:20:00,78.8,65.6,30.03,North,0,0.0,0.0,64,0.00,,SCT025,0.00,VWS V14.01,2013-05-23 13:20:00,
2013-05-23 09:21:00,78.8,65.6,30.03,North,0,0.0,0.0,64,0.00,,SCT025,0.00,VWS V14.01,2013-05-23 13:21:00,
2013-05-23 09:22:00,78.8,65.6,30.03,North,0,0.0,0.0,64,0.00,,SCT025,0.00,VWS V14.01,2013-05-23 13:22:00,
2013-05-23 09:23:00,79.0,65.8,30.03,North,0,0.0,0.0,64,0.00,,SCT025,0.00,VWS V14.01,2013-05-23 13:23:00,
2013-05-23 09:24:00,79.0,65.8,30.03,North,0,0.0,0.0,64,0.00,,SCT025,0.00,VWS V14.01,2013-05-23 13:24:00,
2013-05-23 09:26:00,79.2,65.5,30.03,North,0,0.0,0.0,63,0.00,,SCT025,0.00,VWS V14.01,2013-05-23 13:26:00,
2013-05-23 09:28:00,79.3,65.2,30.03,North,0,0.0,0.0,62,0.00,,SCT025,0.00,VWS V14.01,2013-05-23 13:28:00,
2013-05-23 09:30:00,79.5,65.4,30.03,North,0,0.0,0.0,62,0.00,,SCT025,0.00,VWS V14.01,2013-05-23 13:30:00,
2013-05-23 09:31:00,79.7,65.5,30.03,North,0,0.0,0.0,62,0.00,,SCT025,0.00,VWS V14.01,2013-05-23 13:31:00,
2013-05-23 09:32:00,79.7,65.5,30.03,North,0,0.0,0.0,62,0.00,,SCT025,0.00,VWS V14.01,2013-05-23 13:32:00,
2013-05-23 09:35:00,79.9,65.7,30.03,North,0,0.0,0.0,62,0.00,,SCT025,0.00,VWS V14.01,2013-05-23 13:35:00,
2013-05-23 09:37:00,79.9,65.7,30.03,North,0,0.0,0.0,62,0.00,,SCT025,0.00,VWS V14.01,2013-05-23 13:37:00,
2013-05-23 09:39:00,79.9,65.2,30.03,North,0,0.0,0.0,61,0.00,,SCT025,0.00,VWS V14.01,2013-05-23 13:39:00,
2013-05-23 09:41:00,79.9,65.2,30.03,North,0,0.0,0.0,61,0.00,,SCT025,0.00,VWS V14.01,2013-05-23 13:41:00,
2013-05-23 09:43:00,79.9,65.7,30.03,North,0,0.0,0.0,62,0.00,,SCT025,0.00,VWS V14.01,2013-05-23 13:43:00,
2013-05-23 09:44:00,79.9,65.7,30.03,North,0,0.0,0.0,62,0.00,,SCT025,0.00,VWS V14.01,2013-05-23 13:44:00,
2013-05-23 09:46:00,79.9,65.2,30.03,North,0,0.0,0.0,61,0.00,,SCT025,0.00,VWS V14.01,2013-05-23 13:46:00,
2013-05-23 09:48:00,79.9,65.2,30.03,North,0,0.0,0.0,61,0.00,,SCT025,0.00,VWS V14.01,2013-05-23 13:48:00,
2013-05-23 09:49:00,79.9,64.8,30.03,North,0,0.0,0.0,60,0.00,,SCT025,0.00,VWS V14.01,2013-05-23 13:49:00,
2013-05-23 09:52:00,80.1,64.9,30.03,North,0,0.0,0.0,60,0.00,,SCT025,0.00,VWS V14.01,2013-05-23 13:52:00,
2013-05-23 09:54:00,80.1,64.9,30.03,North,0,0.0,0.0,60,0.00,,SCT025,0.00,VWS V14.01,2013-05-23 13:54:00,
2013-05-23 09:56:00,80.2,64.6,30.03,North,0,0.0,0.0,59,0.00,,SCT025,0.00,VWS V14.01,2013-05-23 13:56:00,
2013-05-23 09:58:00,80.2,65.1,30.03,North,0,0.0,0.0,60,0.00,,SCT025,0.00,VWS V14.01,2013-05-23 13:58:00,
2013-05-23 10:00:00,80.4,64.8,30.03,North,0,0.0,0.0,59,0.00,,SCT025,0.00,VWS V14.01,2013-05-23 14:00:00,
2013-05-23 10:01:00,80.4,64.8,30.03,North,0,0.0,0.0,59,0.00,,SCT025,0.00,VWS V14.01,2013-05-23 14:01:00,
2013-05-23 10:03:00,80.4,64.8,30.03,North,0,0.0,0.0,59,0.00,,SCT025,0.00,VWS V14.01,2013-05-23 14:03:00,
2013-05-23 10:05:00,80.4,63.8,30.03,North,0,0.0,0.0,57,0.00,,SCT025,0.00,VWS V14.01,2013-05-23 14:05:00,
2013-05-23 10:10:00,80.8,63.1,30.03,North,0,0.0,0.0,55,0.00,,SCT025,0.00,VWS V14.01,2013-05-23 14:10:00,
2013-05-23 10:11:00,80.8,63.1,30.03,North,0,0.0,0.0,55,0.00,,SCT025,0.00,VWS V14.01,2013-05-23 14:11:00,
2013-05-23 10:12:00,81.0,63.8,30.03,North,0,0.0,0.0,56,0.00,,SCT025,0.00,VWS V14.01,2013-05-23 14:12:00,
2013-05-23 10:14:00,81.1,64.5,30.03,North,0,0.0,0.0,57,0.00,,SCT025,0.00,VWS V14.01,2013-05-23 14:14:00,
2013-05-23 10:15:00,81.1,64.0,30.03,North,0,0.0,0.0,56,0.00,,SCT025,0.00,VWS V14.01,2013-05-23 14:15:00,
2013-05-23 10:19:00,81.0,62.8,30.03,North,0,0.0,0.0,54,0.00,,SCT025,0.00,VWS V14.01,2013-05-23 14:19:00,
2013-05-23 10:20:00,81.0,62.8,30.03,North,0,0.0,0.0,54,0.00,,SCT025,0.00,VWS V14.01,2013-05-23 14:20:00,
2013-05-23 10:21:00,81.0,62.8,30.03,North,0,0.0,0.0,54,0.00,,SCT025,0.00,VWS V14.01,2013-05-23 14:21:00,
2013-05-23 10:22:00,80.8,62.6,30.03,North,0,0.0,0.0,54,0.00,,SCT025,0.00,VWS V14.01,2013-05-23 14:22:00,
2013-05-23 10:24:00,80.8,63.1,30.03,North,0,0.0,0.0,55,0.00,,SCT025,0.00,VWS V14.01,2013-05-23 14:24:00,
2013-05-23 10:26:00,80.6,63.0,30.03,North,0,0.0,0.0,55,0.00,,SCT025,0.00,VWS V14.01,2013-05-23 14:26:00,
2013-05-23 10:29:00,80.6,63.0,30.06,North,0,0.0,0.0,55,0.00,,SCT025,0.00,VWS V14.01,2013-05-23 14:29:00,
2013-05-23 10:30:00,80.6,63.0,30.06,North,0,0.0,0.0,55,0.00,,SCT025,0.00,VWS V14.01,2013-05-23 14:30:00,
2013-05-23 10:32:00,80.6,63.0,30.06,North,0,0.0,0.0,55,0.00,,SCT025,0.00,VWS V14.01,2013-05-23 14:32:00,
2013-05-23 10:34:00,80.8,62.6,30.06,North,0,0.0,0.0,54,0.00,,SCT025,0.00,VWS V14.01,2013-05-23 14:34:00,
2013-05-23 10:35:00,80.8,63.1,30.06,North,0,0.0,0.0,55,0.00,,SCT025,0.00,VWS V14.01,2013-05-23 14:35:00,
2013-05-23 10:37:00,81.0,63.3,30.06,North,0,0.0,0.0,55,0.00,,SCT025,0.00,VWS V14.01,2013-05-23 14:37:00,
2013-05-23 10:39:00,81.1,63.5,30.06,North,0,0.0,0.0,55,0.00,,SCT025,0.00,VWS V14.01,2013-05-23 14:39:00,
2013-05-23 10:43:00,81.1,63.5,30.06,North,0,0.0,0.0,55,0.00,,SCT025,0.00,VWS V14.01,2013-05-23 14:43:00,
2013-05-23 10:45:00,81.3,63.6,30.06,North,0,0.0,0.0,55,0.00,,SCT025,0.00,VWS V14.01,2013-05-23 14:45:00,
2013-05-23 10:46:00,81.3,63.1,30.06,North,0,0.0,0.0,54,0.00,,SCT025,0.00,VWS V14.01,2013-05-23 14:46:00,
2013-05-23 10:50:00,81.3,63.1,30.06,North,0,0.0,0.0,54,0.00,,SCT025,0.00,VWS V14.01,2013-05-23 14:50:00,
2013-05-23 10:51:00,81.3,63.6,30.06,North,0,0.0,0.0,55,0.00,,SCT025,0.00,VWS V14.01,2013-05-23 14:51:00,
2013-05-23 10:52:00,81.3,63.6,30.06,North,0,0.0,0.0,55,0.00,,SCT025,0.00,VWS V14.01,2013-05-23 14:52:00,
2013-05-23 10:53:00,81.3,63.6,30.06,North,0,0.0,0.0,55,0.00,,SCT025,0.00,VWS V14.01,2013-05-23 14:53:00,
2013-05-23 10:56:00,81.5,63.3,30.06,North,0,0.0,0.0,54,0.00,,SCT025,0.00,VWS V14.01,2013-05-23 14:56:00,
2013-05-23 10:58:00,81.5,63.3,30.06,North,0,0.0,0.0,54,0.00,,SCT025,0.00,VWS V14.01,2013-05-23 14:58:00,
2013-05-23 11:00:00,81.5,63.3,30.06,North,0,0.0,0.0,54,0.00,,SCT025,0.00,VWS V14.01,2013-05-23 15:00:00,
2013-05-23 11:02:00,81.5,62.2,30.06,North,0,0.0,0.0,52,0.00,,SCT025,0.00,VWS V14.01,2013-05-23 15:02:00,
2013-05-23 11:05:00,81.5,61.7,30.06,North,0,0.0,0.0,51,0.00,,SCT025,0.00,VWS V14.01,2013-05-23 15:05:00,
2013-05-23 11:06:00,81.5,62.2,30.06,North,0,0.0,0.0,52,0.00,,SCT025,0.00,VWS V14.01,2013-05-23 15:06:00,
2013-05-23 11:07:00,81.5,62.2,30.06,North,0,0.0,0.0,52,0.00,,SCT025,0.00,VWS V14.01,2013-05-23 15:07:00,
2013-05-23 11:08:00,81.7,61.8,30.06,North,0,0.0,0.0,51,0.00,,SCT025,0.00,VWS V14.01,2013-05-23 15:08:00,
2013-05-23 11:10:00,81.7,61.8,30.06,North,0,0.0,0.0,51,0.00,,SCT025,0.00,VWS V14.01,2013-05-23 15:10:00,
2013-05-23 11:11:00,81.9,62.5,30.06,North,0,0.0,0.0,52,0.00,,SCT025,0.00,VWS V14.01,2013-05-23 15:11:00,
2013-05-23 11:13:00,81.9,62.0,30.06,North,0,0.0,0.0,51,0.00,,SCT025,0.00,VWS V14.01,2013-05-23 15:13:00,
2013-05-23 11:14:00,82.0,61.6,30.06,North,0,0.0,0.0,50,0.00,,SCT025,0.00,VWS V14.01,2013-05-23 15:14:00,
2013-05-23 11:19:00,82.0,61.6,30.06,North,0,0.0,0.0,50,0.00,,SCT025,0.00,VWS V14.01,2013-05-23 15:19:00,
2013-05-23 11:20:00,82.0,61.6,30.06,North,0,0.0,0.0,50,0.00,,SCT025,0.00,VWS V14.01,2013-05-23 15:20:00,
2013-05-23 11:21:00,82.0,61.6,30.06,North,0,0.0,0.0,50,0.00,,SCT025,0.00,VWS V14.01,2013-05-23 15:21:00,
2013-05-23 11:22:00,82.0,61.6,30.06,North,0,0.0,0.0,50,0.00,,SCT025,0.00,VWS V14.01,2013-05-23 15:22:00,
2013-05-23 11:25:00,82.0,61.6,30.06,North,0,0.0,0.0,50,0.00,,SCT025,0.00,VWS V14.01,2013-05-23 15:25:00,
2013-05-23 11:26:00,82.0,61.6,30.06,North,0,0.0,0.0,50,0.00,,SCT025,0.00,VWS V14.01,2013-05-23 15:26:00,
2013-05-23 11:27:00,82.0,61.6,30.06,North,0,0.0,0.0,50,0.00,,SCT025,0.00,VWS V14.01,2013-05-23 15:27:00,
2013-05-23 11:30:00,82.0,61.0,30.06,North,0,0.0,0.0,49,0.00,,SCT025,0.00,VWS V14.01,2013-05-23 15:30:00,
2013-05-23 11:31:00,82.0,61.0,30.06,North,0,0.0,0.0,49,0.00,,SCT025,0.00,VWS V14.01,2013-05-23 15:31:00,
2013-05-23 11:34:00,82.2,61.2,30.06,North,0,0.0,0.0,49,0.00,,SCT025,0.00,VWS V14.01,2013-05-23 15:34:00,
2013-05-23 11:35:00,82.2,61.2,30.06,North,0,0.0,0.0,49,0.00,,SCT025,0.00,VWS V14.01,2013-05-23 15:35:00,
2013-05-23 11:36:00,82.2,61.8,30.06,North,0,0.0,0.0,50,0.00,,SCT025,0.00,VWS V14.01,2013-05-23 15:36:00,
2013-05-23 11:38:00,82.4,61.3,30.06,North,0,0.0,0.0,49,0.00,,SCT025,0.00,VWS V14.01,2013-05-23 15:38:00,
2013-05-23 11:40:00,82.6,60.9,30.06,North,0,0.0,0.0,48,0.00,,SCT025,0.00,VWS V14.01,2013-05-23 15:40:00,
2013-05-23 11:42:00,82.6,60.9,30.06,North,0,0.0,0.0,48,0.00,,SCT025,0.00,VWS V14.01,2013-05-23 15:42:00,
2013-05-23 11:45:00,82.6,60.3,30.06,North,0,0.0,0.0,47,0.00,,SCT025,0.00,VWS V14.01,2013-05-23 15:45:00,
2013-05-23 11:47:00,82.6,60.3,30.06,North,0,0.0,0.0,47,0.00,,SCT025,0.00,VWS V14.01,2013-05-23 15:47:00,
2013-05-23 11:50:00,82.8,59.9,30.06,North,0,0.0,0.0,46,0.00,,SCT025,0.00,VWS V14.01,2013-05-23 15:50:00,
2013-05-23 11:51:00,82.8,59.9,30.06,North,0,0.0,0.0,46,0.00,,SCT025,0.00,VWS V14.01,2013-05-23 15:51:00,
2013-05-23 11:52:00,82.8,59.9,30.06,North,0,0.0,0.0,46,0.00,,SCT025,0.00,VWS V14.01,2013-05-23 15:52:00,
2013-05-23 11:54:00,82.8,61.1,30.06,North,0,0.0,0.0,48,0.00,,SCT025,0.00,VWS V14.01,2013-05-23 15:54:00,
2013-05-23 11:57:00,82.8,61.1,30.06,North,0,0.0,0.0,48,0.00,,SCT025,0.00,VWS V14.01,2013-05-23 15:57:00,
2013-05-23 11:58:00,82.8,61.7,30.06,North,0,0.0,0.0,49,0.00,,SCT025,0.00,VWS V14.01,2013-05-23 15:58:00,
2013-05-23 11:59:00,82.8,61.7,30.06,North,0,0.0,0.0,49,0.00,,SCT025,0.00,VWS V14.01,2013-05-23 15:59:00,
2013-05-23 12:01:00,82.8,62.2,30.06,North,0,0.0,0.0,50,0.00,,SCT025,0.00,VWS V14.01,2013-05-23 16:01:00,
2013-05-23 12:03:00,82.8,62.2,30.06,North,0,0.0,0.0,50,0.00,,SCT025,0.00,VWS V14.01,2013-05-23 16:03:00,
2013-05-23 12:05:00,82.9,62.4,30.06,North,0,0.0,0.0,50,0.00,,SCT025,0.00,VWS V14.01,2013-05-23 16:05:00,
2013-05-23 12:06:00,82.8,61.7,30.06,North,0,0.0,0.0,49,0.00,,SCT025,0.00,VWS V14.01,2013-05-23 16:06:00,
2013-05-23 12:10:00,82.9,60.7,30.06,North,0,0.0,0.0,47,0.00,,SCT025,0.00,VWS V14.01,2013-05-23 16:10:00,
2013-05-23 12:11:00,82.9,60.7,30.06,North,0,0.0,0.0,47,0.00,,SCT025,0.00,VWS V14.01,2013-05-23 16:11:00,
2013-05-23 12:12:00,82.9,60.0,30.06,North,0,0.0,0.0,46,0.00,,SCT025,0.00,VWS V14.01,2013-05-23 16:12:00,
2013-05-23 12:14:00,82.9,60.7,30.06,North,0,0.0,0.0,47,0.00,,SCT025,0.00,VWS V14.01,2013-05-23 16:14:00,
2013-05-23 12:16:00,82.9,60.0,30.06,North,0,0.0,0.0,46,0.00,,SCT025,0.00,VWS V14.01,2013-05-23 16:16:00,
2013-05-23 12:18:00,82.9,60.0,30.06,North,0,0.0,0.0,46,0.00,,SCT025,0.00,VWS V14.01,2013-05-23 16:18:00,
2013-05-23 12:19:00,82.9,59.4,30.06,North,0,0.0,0.0,45,0.00,,SCT025,0.00,VWS V14.01,2013-05-23 16:19:00,
2013-05-23 12:20:00,83.1,60.2,30.06,North,0,0.0,0.0,46,0.00,,SCT025,0.00,VWS V14.01,2013-05-23 16:20:00,
2013-05-23 12:21:00,83.1,60.8,30.06,North,0,0.0,0.0,47,0.00,,SCT025,0.00,VWS V14.01,2013-05-23 16:21:00,
2013-05-23 12:25:00,83.3,61.0,30.06,North,0,0.0,0.0,47,0.00,,SCT025,0.00,VWS V14.01,2013-05-23 16:25:00,
2013-05-23 12:26:00,83.1,60.8,30.06,North,0,0.0,0.0,47,0.00,,SCT025,0.00,VWS V14.01,2013-05-23 16:26:00,
2013-05-23 12:27:00,83.3,61.0,30.06,North,0,0.0,0.0,47,0.00,,SCT025,0.00,VWS V14.01,2013-05-23 16:27:00,
2013-05-23 12:28:00,83.3,61.6,30.06,North,0,0.0,0.0,48,0.00,,SCT025,0.00,VWS V14.01,2013-05-23 16:28:00,
2013-05-23 12:32:00,83.5,61.2,30.06,North,0,0.0,0.0,47,0.00,,SCT025,0.00,VWS V14.01,2013-05-23 16:32:00,
2013-05-23 12:33:00,83.7,61.3,30.06,North,0,0.0,0.0,47,0.00,,SCT025,0.00,VWS V14.01,2013-05-23 16:33:00,
2013-05-23 12:34:00,83.7,60.1,30.06,North,0,0.0,0.0,45,0.00,,SCT025,0.00,VWS V14.01,2013-05-23 16:34:00,
2013-05-23 12:36:00,83.7,60.7,30.06,North,0,0.0,0.0,46,0.00,,SCT025,0.00,VWS V14.01,2013-05-23 16:36:00,
2013-05-23 12:38:00,83.7,60.7,30.06,North,0,0.0,0.0,46,0.00,,SCT025,0.00,VWS V14.01,2013-05-23 16:38:00,
2013-05-23 12:40:00,83.7,60.7,30.06,North,0,0.0,0.0,46,0.00,,SCT025,0.00,VWS V14.01,2013-05-23 16:40:00,
2013-05-23 12:41:00,83.7,61.9,30.06,North,0,0.0,0.0,48,0.00,,SCT025,0.00,VWS V14.01,2013-05-23 16:41:00,
2013-05-23 12:43:00,83.7,61.3,30.06,North,0,0.0,0.0,47,0.00,,SCT025,0.00,VWS V14.01,2013-05-23 16:43:00,
2013-05-23 12:48:00,83.8,60.9,30.06,North,0,0.0,0.0,46,0.00,,SCT025,0.00,VWS V14.01,2013-05-23 16:48:00,
2013-05-23 12:49:00,83.8,60.9,30.06,North,0,0.0,0.0,46,0.00,,SCT025,0.00,VWS V14.01,2013-05-23 16:49:00,
2013-05-23 12:50:00,83.8,60.9,30.06,North,0,0.0,0.0,46,0.00,,SCT025,0.00,VWS V14.01,2013-05-23 16:50:00,
2013-05-23 12:51:00,84.0,61.0,30.06,North,0,0.0,0.0,46,0.00,,SCT025,0.00,VWS V14.01,2013-05-23 16:51:00,
2013-05-23 12:53:00,84.0,61.0,30.06,North,0,0.0,0.0,46,0.00,,SCT025,0.00,VWS V14.01,2013-05-23 16:53:00,
2013-05-23 12:55:00,84.2,61.2,30.06,North,0,0.0,0.0,46,0.00,,SCT025,0.00,VWS V14.01,2013-05-23 16:55:00,
2013-05-23 12:57:00,84.0,60.4,30.06,North,0,0.0,0.0,45,0.00,,SCT025,0.00,VWS V14.01,2013-05-23 16:57:00,
2013-05-23 12:58:00,84.2,60.6,30.06,North,0,0.0,0.0,45,0.00,,SCT025,0.00,VWS V14.01,2013-05-23 16:58:00,
2013-05-23 12:59:00,84.2,60.6,30.06,North,0,0.0,0.0,45,0.00,,SCT025,0.00,VWS V14.01,2013-05-23 16:59:00,
2013-05-23 13:02:00,84.2,61.2,30.06,North,0,0.0,0.0,46,0.00,,SCT025,0.00,VWS V14.01,2013-05-23 17:02:00,
2013-05-23 13:03:00,84.2,61.2,30.06,North,0,0.0,0.0,46,0.00,,SCT025,0.00,VWS V14.01,2013-05-23 17:03:00,
2013-05-23 13:04:00,84.2,60.6,30.06,North,0,0.0,0.0,45,0.00,,SCT025,0.00,VWS V14.01,2013-05-23 17:04:00,
2013-05-23 13:05:00,84.0,60.4,30.06,North,0,0.0,0.0,45,0.00,,SCT025,0.00,VWS V14.01,2013-05-23 17:05:00,
2013-05-23 13:07:00,84.0,61.0,30.06,North,0,0.0,0.0,46,0.00,,SCT025,0.00,VWS V14.01,2013-05-23 17:07:00,
2013-05-23 13:08:00,84.0,61.6,30.06,North,0,0.0,0.0,47,0.00,,SCT025,0.00,VWS V14.01,2013-05-23 17:08:00,
2013-05-23 13:09:00,84.0,61.6,30.06,North,0,0.0,0.0,47,0.00,,SCT025,0.00,VWS V14.01,2013-05-23 17:09:00,
2013-05-23 13:10:00,84.0,61.6,30.06,North,0,0.0,0.0,47,0.00,,SCT025,0.00,VWS V14.01,2013-05-23 17:10:00,
2013-05-23 13:12:00,84.2,61.8,30.06,North,0,0.0,0.0,47,0.00,,SCT025,0.00,VWS V14.01,2013-05-23 17:12:00,
2013-05-23 13:15:00,84.2,61.2,30.03,North,0,0.0,0.0,46,0.00,,SCT025,0.00,VWS V14.01,2013-05-23 17:15:00,
2013-05-23 13:16:00,84.2,61.2,30.03,North,0,0.0,0.0,46,0.00,,SCT025,0.00,VWS V14.01,2013-05-23 17:16:00,
2013-05-23 13:19:00,84.2,60.6,30.03,North,0,0.0,0.0,45,0.00,,SCT025,0.00,VWS V14.01,2013-05-23 17:19:00,
2013-05-23 13:22:00,84.2,60.6,30.03,North,0,0.0,0.0,45,0.00,,SCT030,0.00,VWS V14.01,2013-05-23 17:22:00,
2013-05-23 13:24:00,84.2,61.2,30.03,North,0,0.0,0.0,46,0.00,,SCT030,0.00,VWS V14.01,2013-05-23 17:24:00,
2013-05-23 13:25:00,84.2,61.8,30.03,North,0,0.0,0.0,47,0.00,,SCT030,0.00,VWS V14.01,2013-05-23 17:25:00,
2013-05-23 13:27:00,84.2,61.8,30.03,North,0,0.0,0.0,47,0.00,,SCT030,0.00,VWS V14.01,2013-05-23 17:27:00,
2013-05-23 13:30:00,84.4,61.4,30.03,North,0,0.0,0.0,46,0.00,,SCT030,0.00,VWS V14.01,2013-05-23 17:30:00,
2013-05-23 13:33:00,84.4,60.1,30.03,North,0,0.0,0.0,44,0.00,,SCT030,0.00,VWS V14.01,2013-05-23 17:33:00,
2013-05-23 13:35:00,84.4,61.4,30.03,North,0,0.0,0.0,46,0.00,,SCT030,0.00,VWS V14.01,2013-05-23 17:35:00,
2013-05-23 13:36:00,84.6,61.5,30.03,North,0,0.0,0.0,46,0.00,,SCT030,0.00,VWS V14.01,2013-05-23 17:36:00,
2013-05-23 13:37:00,84.6,61.5,30.03,North,0,0.0,0.0,46,0.00,,SCT030,0.00,VWS V14.01,2013-05-23 17:37:00,
2013-05-23 13:38:00,84.6,62.1,30.03,North,0,0.0,0.0,47,0.00,,SCT030,0.00,VWS V14.01,2013-05-23 17:38:00,
2013-05-23 13:40:00,84.6,60.3,30.03,North,0,0.0,0.0,44,0.00,,SCT030,0.00,VWS V14.01,2013-05-23 17:40:00,
2013-05-23 13:41:00,84.7,61.1,30.03,North,0,0.0,0.0,45,0.00,,SCT030,0.00,VWS V14.01,2013-05-23 17:41:00,
2013-05-23 13:44:00,84.7,61.1,30.03,North,0,0.0,0.0,45,0.00,,SCT030,0.00,VWS V14.01,2013-05-23 17:44:00,
2013-05-23 13:46:00,84.7,60.4,30.03,North,0,0.0,0.0,44,0.00,,SCT030,0.00,VWS V14.01,2013-05-23 17:46:00,
2013-05-23 13:48:00,84.7,61.7,30.03,North,0,0.0,0.0,46,0.00,,SCT030,0.00,VWS V14.01,2013-05-23 17:48:00,
2013-05-23 13:49:00,84.7,61.1,30.03,North,0,0.0,0.0,45,0.00,,SCT030,0.00,VWS V14.01,2013-05-23 17:49:00,
2013-05-23 13:51:00,84.7,61.1,30.03,North,0,0.0,0.0,45,0.00,,SCT030,0.00,VWS V14.01,2013-05-23 17:51:00,
2013-05-23 13:52:00,84.7,61.1,30.03,North,0,0.0,0.0,45,0.00,,SCT030,0.00,VWS V14.01,2013-05-23 17:52:00,
2013-05-23 13:55:00,84.7,60.4,30.03,North,0,0.0,0.0,44,0.00,,SCT030,0.00,VWS V14.01,2013-05-23 17:55:00,
2013-05-23 13:56:00,84.7,60.4,30.03,North,0,0.0,0.0,44,0.00,,SCT030,0.00,VWS V14.01,2013-05-23 17:56:00,
2013-05-23 13:58:00,84.9,60.6,30.03,North,0,0.0,0.0,44,0.00,,SCT030,0.00,VWS V14.01,2013-05-23 17:58:00,
2013-05-23 14:01:00,84.9,60.6,30.03,North,0,0.0,0.0,44,0.00,,SCT030,0.00,VWS V14.01,2013-05-23 18:01:00,
2013-05-23 14:02:00,84.9,60.6,30.03,North,0,0.0,0.0,44,0.00,,SCT030,0.00,VWS V14.01,2013-05-23 18:02:00,
2013-05-23 14:04:00,84.9,60.0,30.03,North,0,0.0,0.0,43,0.00,,SCT030,0.00,VWS V14.01,2013-05-23 18:04:00,
2013-05-23 14:07:00,84.7,60.4,30.03,North,0,0.0,0.0,44,0.00,,SCT030,0.00,VWS V14.01,2013-05-23 18:07:00,
2013-05-23 14:08:00,84.7,60.4,30.03,North,0,0.0,0.0,44,0.00,,SCT030,0.00,VWS V14.01,2013-05-23 18:08:00,
2013-05-23 14:09:00,84.7,60.4,30.03,North,0,0.0,0.0,44,0.00,,SCT030,0.00,VWS V14.01,2013-05-23 18:09:00,
2013-05-23 14:13:00,84.9,60.6,30.03,North,0,0.0,0.0,44,0.00,,SCT030,0.00,VWS V14.01,2013-05-23 18:13:00,
2013-05-23 14:14:00,84.9,61.2,30.03,North,0,0.0,0.0,45,0.00,,SCT030,0.00,VWS V14.01,2013-05-23 18:14:00,
2013-05-23 14:15:00,84.9,60.6,30.03,North,0,0.0,0.0,44,0.00,,SCT030,0.00,VWS V14.01,2013-05-23 18:15:00,
2013-05-23 14:18:00,85.1,61.4,30.03,North,0,0.0,0.0,45,0.00,,SCT030,0.00,VWS V14.01,2013-05-23 18:18:00,
2013-05-23 14:19:00,85.1,60.1,30.03,North,0,0.0,0.0,43,0.00,,SCT030,0.00,VWS V14.01,2013-05-23 18:19:00,
2013-05-23 14:20:00,85.1,60.1,30.03,North,0,0.0,0.0,43,0.00,,SCT030,0.00,VWS V14.01,2013-05-23 18:20:00,
2013-05-23 14:21:00,85.1,58.8,30.03,North,0,0.0,0.0,41,0.00,,SCT030,0.00,VWS V14.01,2013-05-23 18:21:00,
2013-05-23 14:22:00,85.1,59.5,30.03,North,0,0.0,0.0,42,0.00,,SCT030,0.00,VWS V14.01,2013-05-23 18:22:00,
2013-05-23 14:24:00,84.9,59.3,30.03,North,0,0.0,0.0,42,0.00,,SCT030,0.00,VWS V14.01,2013-05-23 18:24:00,
2013-05-23 14:25:00,84.9,59.3,30.03,North,0,0.0,0.0,42,0.00,,SCT030,0.00,VWS V14.01,2013-05-23 18:25:00,
2013-05-23 14:27:00,84.9,60.6,30.03,North,0,0.0,0.0,44,0.00,,SCT030,0.00,VWS V14.01,2013-05-23 18:27:00,
2013-05-23 14:29:00,85.1,60.8,30.03,North,0,0.0,0.0,44,0.00,,SCT030,0.00,VWS V14.01,2013-05-23 18:29:00,
2013-05-23 14:31:00,85.3,59.6,30.03,North,0,0.0,0.0,42,0.00,,SCT030,0.00,VWS V14.01,2013-05-23 18:31:00,
2013-05-23 14:32:00,85.5,59.8,30.03,North,0,0.0,0.0,42,0.00,,SCT030,0.00,VWS V14.01,2013-05-23 18:32:00,
2013-05-23 14:34:00,85.5,59.8,30.03,North,0,0.0,0.0,42,0.00,,SCT030,0.00,VWS V14.01,2013-05-23 18:34:00,
2013-05-23 14:36:00,85.5,59.8,30.03,North,0,0.0,0.0,42,0.00,,SCT030,0.00,VWS V14.01,2013-05-23 18:36:00,
2013-05-23 14:38:00,85.5,60.4,30.03,North,0,0.0,0.0,43,0.00,,SCT030,0.00,VWS V14.01,2013-05-23 18:38:00,
2013-05-23 14:40:00,85.5,59.1,30.03,North,0,0.0,0.0,41,0.00,,SCT030,0.00,VWS V14.01,2013-05-23 18:40:00,
2013-05-23 14:41:00,85.5,59.1,30.03,North,0,0.0,0.0,41,0.00,,SCT030,0.00,VWS V14.01,2013-05-23 18:41:00,
2013-05-23 14:42:00,85.5,59.1,30.03,North,0,0.0,0.0,41,0.00,,SCT030,0.00,VWS V14.01,2013-05-23 18:42:00,
2013-05-23 14:44:00,85.5,59.8,30.03,North,0,0.0,0.0,42,0.00,,SCT030,0.00,VWS V14.01,2013-05-23 18:44:00,
2013-05-23 14:45:00,85.5,59.1,30.03,North,0,0.0,0.0,41,0.00,,SCT030,0.00,VWS V14.01,2013-05-23 18:45:00,
2013-05-23 14:46:00,85.5,59.1,30.03,North,0,0.0,0.0,41,0.00,,SCT030,0.00,VWS V14.01,2013-05-23 18:46:00,
2013-05-23 14:48:00,85.6,59.3,30.03,North,0,0.0,0.0,41,0.00,,SCT030,0.00,VWS V14.01,2013-05-23 18:48:00,
2013-05-23 14:49:00,85.6,59.3,30.03,North,0,0.0,0.0,41,0.00,,SCT030,0.00,VWS V14.01,2013-05-23 18:49:00,
2013-05-23 14:50:00,85.6,58.6,30.03,North,0,0.0,0.0,40,0.00,,SCT030,0.00,VWS V14.01,2013-05-23 18:50:00,
2013-05-23 14:54:00,85.8,58.0,30.03,North,0,0.0,0.0,39,0.00,,SCT030,0.00,VWS V14.01,2013-05-23 18:54:00,
2013-05-23 14:55:00,85.8,58.0,30.03,North,0,0.0,0.0,39,0.00,,SCT030,0.00,VWS V14.01,2013-05-23 18:55:00,
2013-05-23 14:56:00,85.8,58.0,30.03,North,0,0.0,0.0,39,0.00,,SCT030,0.00,VWS V14.01,2013-05-23 18:56:00,
2013-05-23 14:57:00,85.8,58.0,30.03,North,0,0.0,0.0,39,0.00,,SCT030,0.00,VWS V14.01,2013-05-23 18:57:00,
2013-05-23 14:59:00,85.8,58.0,30.00,North,0,0.0,0.0,39,0.00,,SCT030,0.00,VWS V14.01,2013-05-23 18:59:00,
2013-05-23 15:00:00,86.0,58.9,30.00,North,0,0.0,0.0,40,0.00,,SCT030,0.00,VWS V14.01,2013-05-23 19:00:00,
2013-05-23 15:03:00,86.0,58.9,30.00,North,0,0.0,0.0,40,0.00,,SCT030,0.00,VWS V14.01,2013-05-23 19:03:00,
2013-05-23 15:05:00,86.2,59.7,30.00,North,0,0.0,0.0,41,0.00,,SCT030,0.00,VWS V14.01,2013-05-23 19:05:00,
2013-05-23 15:06:00,86.2,59.0,30.00,North,0,0.0,0.0,40,0.00,,SCT030,0.00,VWS V14.01,2013-05-23 19:06:00,
2013-05-23 15:07:00,86.2,59.0,30.00,North,0,0.0,0.0,40,0.00,,SCT030,0.00,VWS V14.01,2013-05-23 19:07:00,
2013-05-23 15:09:00,86.4,59.9,30.00,North,0,0.0,0.0,41,0.00,,SCT030,0.00,VWS V14.01,2013-05-23 19:09:00,
2013-05-23 15:12:00,86.2,59.0,30.00,North,0,0.0,0.0,40,0.00,,SCT030,0.00,VWS V14.01,2013-05-23 19:12:00,
2013-05-23 15:16:00,86.2,58.3,30.00,North,0,0.0,0.0,39,0.00,,SCT030,0.00,VWS V14.01,2013-05-23 19:16:00,
2013-05-23 15:17:00,86.2,59.0,30.00,North,0,0.0,0.0,40,0.00,,SCT030,0.00,VWS V14.01,2013-05-23 19:17:00,
2013-05-23 15:19:00,86.2,58.3,30.00,North,0,0.0,0.0,39,0.00,,SCT030,0.00,VWS V14.01,2013-05-23 19:19:00,
2013-05-23 15:21:00,86.0,58.9,30.00,North,0,0.0,0.0,40,0.00,,SCT030,0.00,VWS V14.01,2013-05-23 19:21:00,
2013-05-23 15:22:00,86.0,58.2,30.00,North,0,0.0,0.0,39,0.00,,SCT030,0.00,VWS V14.01,2013-05-23 19:22:00,
2013-05-23 15:24:00,85.8,58.7,30.00,North,0,0.0,0.0,40,0.00,,SCT030,0.00,VWS V14.01,2013-05-23 19:24:00,
2013-05-23 15:28:00,85.8,59.4,30.00,North,0,0.0,0.0,41,0.00,,SCT030,0.00,VWS V14.01,2013-05-23 19:28:00,
2013-05-23 15:29:00,85.8,59.4,30.00,North,0,0.0,0.0,41,0.00,,SCT030,0.00,VWS V14.01,2013-05-23 19:29:00,
2013-05-23 15:30:00,85.8,59.4,30.00,North,0,0.0,0.0,41,0.00,,SCT030,0.00,VWS V14.01,2013-05-23 19:30:00,
2013-05-23 15:31:00,85.8,59.4,30.00,North,0,0.0,0.0,41,0.00,,SCT030,0.00,VWS V14.01,2013-05-23 19:31:00,
2013-05-23 15:34:00,85.6,60.6,30.00,North,0,0.0,0.0,43,0.00,,SCT030,0.00,VWS V14.01,2013-05-23 19:34:00,
2013-05-23 15:36:00,85.6,59.9,30.00,North,0,0.0,0.0,42,0.00,,SCT030,0.00,VWS V14.01,2013-05-23 19:36:00,
2013-05-23 15:39:00,85.6,60.6,30.00,North,0,0.0,0.0,43,0.00,,SCT030,0.00,VWS V14.01,2013-05-23 19:39:00,
2013-05-23 15:40:00,85.6,59.9,30.00,North,0,0.0,0.0,42,0.00,,SCT030,0.00,VWS V14.01,2013-05-23 19:40:00,
2013-05-23 15:41:00,85.6,59.3,30.00,North,0,0.0,0.0,41,0.00,,SCT030,0.00,VWS V14.01,2013-05-23 19:41:00,
2013-05-23 15:45:00,85.5,59.1,30.00,North,0,0.0,0.0,41,0.00,,SCT030,0.00,VWS V14.01,2013-05-23 19:45:00,
2013-05-23 15:46:00,85.5,59.1,30.00,North,0,0.0,0.0,41,0.00,,SCT030,0.00,VWS V14.01,2013-05-23 19:46:00,
2013-05-23 15:47:00,85.5,60.4,30.00,North,0,0.0,0.0,43,0.00,,SCT030,0.00,VWS V14.01,2013-05-23 19:47:00,
2013-05-23 15:48:00,85.5,59.8,30.00,North,0,0.0,0.0,42,0.00,,SCT030,0.00,VWS V14.01,2013-05-23 19:48:00,
2013-05-23 15:50:00,85.5,59.1,30.00,North,0,0.0,0.0,41,0.00,,SCT030,0.00,VWS V14.01,2013-05-23 19:50:00,
2013-05-23 15:52:00,85.5,59.8,30.00,North,0,0.0,0.0,42,0.00,,SCT030,0.00,VWS V14.01,2013-05-23 19:52:00,
2013-05-23 15:53:00,85.5,59.8,30.00,North,0,0.0,0.0,42,0.00,,SCT030,0.00,VWS V14.01,2013-05-23 19:53:00,
2013-05-23 15:56:00,85.6,59.3,30.00,North,0,0.0,0.0,41,0.00,,SCT030,0.00,VWS V14.01,2013-05-23 19:56:00,
2013-05-23 15:57:00,85.5,59.1,30.00,North,0,0.0,0.0,41,0.00,,SCT030,0.00,VWS V14.01,2013-05-23 19:57:00,
2013-05-23 16:01:00,85.5,59.1,30.00,North,0,0.0,0.0,41,0.00,,SCT030,0.00,VWS V14.01,2013-05-23 20:01:00,
2013-05-23 16:02:00,85.5,59.1,30.00,North,0,0.0,0.0,41,0.00,,SCT030,0.00,VWS V14.01,2013-05-23 20:02:00,
2013-05-23 16:04:00,85.5,59.8,30.00,North,0,0.0,0.0,42,0.00,,SCT030,0.00,VWS V14.01,2013-05-23 20:04:00,
2013-05-23 16:05:00,85.5,60.4,30.00,North,0,0.0,0.0,43,0.00,,SCT030,0.00,VWS V14.01,2013-05-23 20:05:00,
2013-05-23 16:09:00,85.6,60.6,30.00,North,0,0.0,0.0,43,0.00,,SCT030,0.00,VWS V14.01,2013-05-23 20:09:00,
2013-05-23 16:10:00,85.6,61.2,30.00,North,0,0.0,0.0,44,0.00,,SCT030,0.00,VWS V14.01,2013-05-23 20:10:00,
2013-05-23 16:11:00,85.6,61.9,30.00,North,0,0.0,0.0,45,0.00,,SCT030,0.00,VWS V14.01,2013-05-23 20:11:00,
2013-05-23 16:13:00,85.8,61.4,30.00,North,0,0.0,0.0,44,0.00,,SCT030,0.00,VWS V14.01,2013-05-23 20:13:00,
2013-05-23 16:15:00,85.8,61.4,30.00,North,0,0.0,0.0,44,0.00,,SCT030,0.00,VWS V14.01,2013-05-23 20:15:00,
2013-05-23 16:18:00,86.0,60.3,30.00,North,0,0.0,0.0,42,0.00,,SCT030,0.00,VWS V14.01,2013-05-23 20:18:00,
2013-05-23 16:21:00,86.0,60.3,30.00,North,0,0.0,0.0,42,0.00,,SCT030,0.00,VWS V14.01,2013-05-23 20:21:00,
2013-05-23 16:22:00,86.0,60.3,30.00,North,0,0.0,0.0,42,0.00,,SCT030,0.00,VWS V14.01,2013-05-23 20:22:00,
2013-05-23 16:25:00,85.8,60.8,30.00,North,0,0.0,0.0,43,0.00,,SCT030,0.00,VWS V14.01,2013-05-23 20:25:00,
2013-05-23 16:26:00,85.6,60.6,30.00,North,0,0.0,0.0,43,0.00,,SCT030,0.00,VWS V14.01,2013-05-23 20:26:00,
2013-05-23 16:27:00,85.6,61.2,30.00,North,0,0.0,0.0,44,0.00,,SCT030,0.00,VWS V14.01,2013-05-23 20:27:00,
2013-05-23 16:30:00,85.6,60.6,30.00,North,0,0.0,0.0,43,0.00,,SCT030,0.00,VWS V14.01,2013-05-23 20:30:00,
2013-05-23 16:31:00,85.6,60.6,30.00,North,0,0.0,0.0,43,0.00,,SCT030,0.00,VWS V14.01,2013-05-23 20:31:00,
2013-05-23 16:32:00,85.6,60.6,30.00,North,0,0.0,0.0,43,0.00,,SCT030,0.00,VWS V14.01,2013-05-23 20:32:00,
2013-05-23 16:34:00,85.6,59.9,30.00,North,0,0.0,0.0,42,0.00,,SCT030,0.00,VWS V14.01,2013-05-23 20:34:00,
2013-05-23 16:36:00,85.6,59.9,30.00,North,0,0.0,0.0,42,0.00,,SCT030,0.00,VWS V14.01,2013-05-23 20:36:00,
2013-05-23 16:37:00,85.6,59.9,30.00,North,0,0.0,0.0,42,0.00,,SCT030,0.00,VWS V14.01,2013-05-23 20:37:00,
2013-05-23 16:39:00,85.5,60.4,30.00,North,0,0.0,0.0,43,0.00,,SCT030,0.00,VWS V14.01,2013-05-23 20:39:00,
2013-05-23 16:41:00,85.5,60.4,30.00,North,0,0.0,0.0,43,0.00,,SCT030,0.00,VWS V14.01,2013-05-23 20:41:00,
2013-05-23 16:42:00,85.5,60.4,30.00,North,0,0.0,0.0,43,0.00,,SCT030,0.00,VWS V14.01,2013-05-23 20:42:00,
2013-05-23 16:45:00,85.3,60.9,30.00,North,0,0.0,0.0,44,0.00,,SCT030,0.00,VWS V14.01,2013-05-23 20:45:00,
2013-05-23 16:46:00,85.3,60.9,30.00,North,0,0.0,0.0,44,0.00,,SCT030,0.00,VWS V14.01,2013-05-23 20:46:00,
2013-05-23 16:48:00,85.5,61.7,30.00,North,0,0.0,0.0,45,0.00,,SCT030,0.00,VWS V14.01,2013-05-23 20:48:00,
2013-05-23 16:51:00,85.5,61.1,30.00,North,0,0.0,0.0,44,0.00,,SCT030,0.00,VWS V14.01,2013-05-23 20:51:00,
2013-05-23 16:52:00,85.3,60.9,30.00,North,0,0.0,0.0,44,0.00,,SCT030,0.00,VWS V14.01,2013-05-23 20:52:00,
2013-05-23 16:53:00,85.5,61.1,30.00,North,0,0.0,0.0,44,0.00,,SCT030,0.00,VWS V14.01,2013-05-23 20:53:00,
2013-05-23 16:56:00,85.5,60.4,30.00,North,0,0.0,0.0,43,0.00,,SCT030,0.00,VWS V14.01,2013-05-23 20:56:00,
2013-05-23 16:58:00,85.5,60.4,30.00,North,0,0.0,0.0,43,0.00,,SCT030,0.00,VWS V14.01,2013-05-23 20:58:00,
2013-05-23 16:59:00,85.5,61.1,30.00,North,0,0.0,0.0,44,0.00,,SCT030,0.00,VWS V14.01,2013-05-23 20:59:00,
2013-05-23 17:01:00,85.5,60.4,30.00,North,0,0.0,0.0,43,0.00,,SCT030,0.00,VWS V14.01,2013-05-23 21:01:00,
2013-05-23 17:03:00,85.3,60.3,30.00,North,0,0.0,0.0,43,0.00,,SCT030,0.00,VWS V14.01,2013-05-23 21:03:00,
2013-05-23 17:05:00,85.3,60.3,30.00,North,0,0.0,0.0,43,0.00,,SCT030,0.00,VWS V14.01,2013-05-23 21:05:00,
2013-05-23 17:08:00,85.1,60.1,30.00,North,0,0.0,0.0,43,0.00,,SCT030,0.00,VWS V14.01,2013-05-23 21:08:00,
2013-05-23 17:09:00,85.1,60.1,30.00,North,0,0.0,0.0,43,0.00,,SCT030,0.00,VWS V14.01,2013-05-23 21:09:00,
2013-05-23 17:11:00,84.9,60.0,30.00,North,0,0.0,0.0,43,0.00,,SCT030,0.00,VWS V14.01,2013-05-23 21:11:00,
2013-05-23 17:13:00,84.7,59.8,30.00,North,0,0.0,0.0,43,0.00,,SCT030,0.00,VWS V14.01,2013-05-23 21:13:00,
2013-05-23 17:17:00,84.9,60.0,30.00,North,0,0.0,0.0,43,0.00,,SCT030,0.00,VWS V14.01,2013-05-23 21:17:00,
2013-05-23 17:19:00,84.7,59.8,30.00,North,0,0.0,0.0,43,0.00,,SCT030,0.00,VWS V14.01,2013-05-23 21:19:00,
2013-05-23 17:21:00,84.7,59.1,30.00,North,0,0.0,0.0,42,0.00,,SCT030,0.00,VWS V14.01,2013-05-23 21:21:00,
2013-05-23 17:23:00,84.7,59.1,30.00,North,0,0.0,0.0,42,0.00,,SCT030,0.00,VWS V14.01,2013-05-23 21:23:00,
2013-05-23 17:25:00,84.6,58.3,30.00,North,0,0.0,0.0,41,0.00,,SCT030,0.00,VWS V14.01,2013-05-23 21:25:00,
2013-05-23 17:26:00,84.6,59.0,30.00,North,0,0.0,0.0,42,0.00,,SCT030,0.00,VWS V14.01,2013-05-23 21:26:00,
2013-05-23 17:27:00,84.6,59.0,30.00,North,0,0.0,0.0,42,0.00,,SCT030,0.00,VWS V14.01,2013-05-23 21:27:00,
2013-05-23 17:28:00,84.6,59.0,29.97,North,0,0.0,0.0,42,0.00,,SCT030,0.00,VWS V14.01,2013-05-23 21:28:00,
2013-05-23 17:32:00,84.6,59.0,29.97,North,0,0.0,0.0,42,0.00,,SCT030,0.00,VWS V14.01,2013-05-23 21:32:00,
2013-05-23 17:33:00,84.6,59.0,29.97,North,0,0.0,0.0,42,0.00,,SCT030,0.00,VWS V14.01,2013-05-23 21:33:00,
2013-05-23 17:34:00,84.6,59.6,29.97,North,0,0.0,0.0,43,0.00,,SCT030,0.00,VWS V14.01,2013-05-23 21:34:00,
2013-05-23 17:35:00,84.6,59.0,29.97,North,0,0.0,0.0,42,0.00,,SCT030,0.00,VWS V14.01,2013-05-23 21:35:00,
2013-05-23 17:38:00,84.6,58.3,29.97,North,0,0.0,0.0,41,0.00,,SCT030,0.00,VWS V14.01,2013-05-23 21:38:00,
2013-05-23 17:40:00,84.7,59.1,29.97,North,0,0.0,0.0,42,0.00,,SCT030,0.00,VWS V14.01,2013-05-23 21:40:00,
2013-05-23 17:43:00,84.7,58.5,30.00,North,0,0.0,0.0,41,0.00,,SCT030,0.00,VWS V14.01,2013-05-23 21:43:00,
2013-05-23 17:45:00,84.7,59.1,30.00,North,0,0.0,0.0,42,0.00,,SCT030,0.00,VWS V14.01,2013-05-23 21:45:00,
2013-05-23 17:50:00,84.7,58.5,30.00,North,0,0.0,0.0,41,0.00,,SCT030,0.00,VWS V14.01,2013-05-23 21:50:00,
2013-05-23 17:51:00,84.7,58.5,30.00,North,0,0.0,0.0,41,0.00,,SCT030,0.00,VWS V14.01,2013-05-23 21:51:00,
2013-05-23 17:55:00,84.7,59.1,30.00,North,0,0.0,0.0,42,0.00,,SCT030,0.00,VWS V14.01,2013-05-23 21:55:00,
2013-05-23 17:56:00,84.7,59.8,30.00,North,0,0.0,0.0,43,0.00,,SCT030,0.00,VWS V14.01,2013-05-23 21:56:00,
2013-05-23 17:58:00,84.7,59.8,30.00,North,0,0.0,0.0,43,0.00,,SCT030,0.00,VWS V14.01,2013-05-23 21:58:00,
2013-05-23 17:59:00,84.7,59.8,30.00,North,0,0.0,0.0,43,0.00,,SCT030,0.00,VWS V14.01,2013-05-23 21:59:00,
2013-05-23 18:00:00,84.9,60.6,30.00,North,0,0.0,0.0,44,0.00,,SCT030,0.00,VWS V14.01,2013-05-23 22:00:00,
2013-05-23 18:03:00,84.9,59.3,30.00,North,0,0.0,0.0,42,0.00,,SCT030,0.00,VWS V14.01,2013-05-23 22:03:00,
2013-05-23 18:04:00,84.9,59.3,30.00,North,0,0.0,0.0,42,0.00,,SCT030,0.00,VWS V14.01,2013-05-23 22:04:00,
2013-05-23 18:06:00,84.7,59.8,30.00,North,0,0.0,0.0,43,0.00,,SCT030,0.00,VWS V14.01,2013-05-23 22:06:00,
2013-05-23 18:07:00,84.7,59.1,30.00,North,0,0.0,0.0,42,0.00,,SCT030,0.00,VWS V14.01,2013-05-23 22:07:00,
2013-05-23 18:08:00,84.6,59.0,30.00,North,0,0.0,0.0,42,0.00,,SCT030,0.00,VWS V14.01,2013-05-23 22:08:00,
2013-05-23 18:10:00,84.6,59.0,30.00,North,0,0.0,0.0,42,0.00,,SCT030,0.00,VWS V14.01,2013-05-23 22:10:00,
2013-05-23 18:11:00,84.6,59.6,30.00,North,0,0.0,0.0,43,0.00,,SCT030,0.00,VWS V14.01,2013-05-23 22:11:00,
2013-05-23 18:13:00,84.4,58.1,30.00,North,0,0.0,0.0,41,0.00,,SCT030,0.00,VWS V14.01,2013-05-23 22:13:00,
2013-05-23 18:15:00,84.6,59.0,30.00,North,0,0.0,0.0,42,0.00,,SCT030,0.00,VWS V14.01,2013-05-23 22:15:00,
2013-05-23 18:17:00,84.6,56.9,30.00,North,0,0.0,0.0,39,0.00,,SCT030,0.00,VWS V14.01,2013-05-23 22:17:00,
2013-05-23 18:21:00,84.6,59.0,30.00,North,0,0.0,0.0,42,0.00,,SCT030,0.00,VWS V14.01,2013-05-23 22:21:00,
2013-05-23 18:22:00,84.7,59.1,30.00,North,0,0.0,0.0,42,0.00,,SCT030,0.00,VWS V14.01,2013-05-23 22:22:00,
2013-05-23 18:23:00,84.7,59.1,30.00,North,0,0.0,0.0,42,0.00,,SCT030,0.00,VWS V14.01,2013-05-23 22:23:00,
2013-05-23 18:24:00,84.7,59.1,30.00,North,0,0.0,0.0,42,0.00,,SCT030,0.00,VWS V14.01,2013-05-23 22:24:00,
2013-05-23 18:25:00,84.6,59.6,30.00,North,0,0.0,0.0,43,0.00,,SCT030,0.00,VWS V14.01,2013-05-23 22:25:00,
2013-05-23 18:30:00,84.4,59.5,30.00,North,0,0.0,0.0,43,0.00,,SCT030,0.00,VWS V14.01,2013-05-23 22:30:00,
2013-05-23 18:32:00,84.4,60.1,30.00,North,0,0.0,0.0,44,0.00,,SCT030,0.00,VWS V14.01,2013-05-23 22:32:00,
2013-05-23 18:33:00,84.2,58.6,30.00,North,0,0.0,0.0,42,0.00,,SCT030,0.00,VWS V14.01,2013-05-23 22:33:00,
2013-05-23 18:36:00,84.2,59.3,30.00,North,0,0.0,0.0,43,0.00,,SCT030,0.00,VWS V14.01,2013-05-23 22:36:00,
2013-05-23 18:37:00,84.0,59.1,30.00,North,0,0.0,0.0,43,0.00,,SCT030,0.00,VWS V14.01,2013-05-23 22:37:00,
2013-05-23 18:39:00,84.0,59.1,30.00,North,0,0.0,0.0,43,0.00,,SCT030,0.00,VWS V14.01,2013-05-23 22:39:00,
2013-05-23 18:40:00,84.0,59.1,30.00,North,0,0.0,0.0,43,0.00,,SCT030,0.00,VWS V14.01,2013-05-23 22:40:00,
2013-05-23 18:41:00,83.8,59.6,30.00,North,0,0.0,0.0,44,0.00,,SCT030,0.00,VWS V14.01,2013-05-23 22:41:00,
2013-05-23 18:44:00,83.8,59.6,30.00,North,0,0.0,0.0,44,0.00,,SCT030,0.00,VWS V14.01,2013-05-23 22:44:00,
2013-05-23 18:46:00,83.7,60.1,30.00,North,0,0.0,0.0,45,0.00,,SCT030,0.00,VWS V14.01,2013-05-23 22:46:00,
2013-05-23 18:49:00,83.7,60.1,30.00,North,0,0.0,0.0,45,0.00,,SCT030,0.00,VWS V14.01,2013-05-23 22:49:00,
2013-05-23 18:51:00,83.7,60.1,30.00,North,0,0.0,0.0,45,0.00,,SCT030,0.00,VWS V14.01,2013-05-23 22:51:00,
2013-05-23 18:55:00,83.7,60.1,30.00,North,0,0.0,0.0,45,0.00,,SCT030,0.00,VWS V14.01,2013-05-23 22:55:00,
2013-05-23 18:56:00,83.5,59.3,30.00,North,0,0.0,0.0,44,0.00,,SCT030,0.00,VWS V14.01,2013-05-23 22:56:00,
2013-05-23 18:59:00,83.5,59.9,30.00,North,0,0.0,0.0,45,0.00,,SCT030,0.00,VWS V14.01,2013-05-23 22:59:00,
2013-05-23 19:00:00,83.3,59.8,30.00,North,0,0.0,0.0,45,0.00,,SCT030,0.00,VWS V14.01,2013-05-23 23:00:00,
2013-05-23 19:01:00,83.3,59.8,30.00,North,0,0.0,0.0,45,0.00,,SCT030,0.00,VWS V14.01,2013-05-23 23:01:00,
2013-05-23 19:05:00,83.3,60.4,30.00,North,0,0.0,0.0,46,0.00,,SCT030,0.00,VWS V14.01,2013-05-23 23:05:00,
2013-05-23 19:08:00,83.3,60.4,30.00,North,0,0.0,0.0,46,0.00,,SCT030,0.00,VWS V14.01,2013-05-23 23:08:00,
2013-05-23 19:12:00,83.3,61.0,30.00,North,0,0.0,0.0,47,0.00,,SCT030,0.00,VWS V14.01,2013-05-23 23:12:00,
2013-05-23 19:13:00,83.3,61.6,30.00,North,0,0.0,0.0,48,0.00,,SCT030,0.00,VWS V14.01,2013-05-23 23:13:00,
2013-05-23 19:17:00,83.5,61.8,30.00,North,0,0.0,0.0,48,0.00,,SCT030,0.00,VWS V14.01,2013-05-23 23:17:00,
2013-05-23 19:18:00,83.5,61.8,30.00,North,0,0.0,0.0,48,0.00,,SCT030,0.00,VWS V14.01,2013-05-23 23:18:00,
2013-05-23 19:20:00,83.5,61.2,30.00,North,0,0.0,0.0,47,0.00,,SCT030,0.00,VWS V14.01,2013-05-23 23:20:00,
2013-05-23 19:22:00,83.5,61.2,30.00,North,0,0.0,0.0,47,0.00,,SCT030,0.00,VWS V14.01,2013-05-23 23:22:00,
2013-05-23 19:24:00,83.5,61.8,30.00,North,0,0.0,0.0,48,0.00,,SCT030,0.00,VWS V14.01,2013-05-23 23:24:00,
2013-05-23 19:26:00,83.5,61.8,30.00,North,0,0.0,0.0,48,0.00,,SCT030,0.00,VWS V14.01,2013-05-23 23:26:00,
2013-05-23 19:28:00,83.5,61.8,30.00,North,0,0.0,0.0,48,0.00,,SCT030,0.00,VWS V14.01,2013-05-23 23:28:00,
2013-05-23 19:29:00,83.5,61.2,30.00,North,0,0.0,0.0,47,0.00,,SCT030,0.00,VWS V14.01,2013-05-23 23:29:00,
2013-05-23 19:31:00,83.3,61.0,30.00,North,0,0.0,0.0,47,0.00,,SCT030,0.00,VWS V14.01,2013-05-23 23:31:00,
2013-05-23 19:32:00,83.1,60.8,30.00,North,0,0.0,0.0,47,0.00,,SCT030,0.00,VWS V14.01,2013-05-23 23:32:00,
2013-05-23 19:33:00,83.1,61.4,30.00,North,0,0.0,0.0,48,0.00,,SCT030,0.00,VWS V14.01,2013-05-23 23:33:00,
2013-05-23 19:36:00,82.8,61.1,30.00,North,0,0.0,0.0,48,0.00,,SCT030,0.00,VWS V14.01,2013-05-23 23:36:00,
2013-05-23 19:37:00,82.8,61.7,30.00,North,0,0.0,0.0,49,0.00,,SCT030,0.00,VWS V14.01,2013-05-23 23:37:00,
2013-05-23 19:40:00,82.4,60.8,30.00,North,0,0.0,0.0,48,0.00,,SCT030,0.00,VWS V14.01,2013-05-23 23:40:00,
2013-05-23 19:43:00,82.2,61.8,30.00,North,0,0.0,0.0,50,0.00,,SCT030,0.00,VWS V14.01,2013-05-23 23:43:00,
2013-05-23 19:44:00,82.0,61.6,30.00,North,0,0.0,0.0,50,0.00,,SCT030,0.00,VWS V14.01,2013-05-23 23:44:00,
2013-05-23 19:46:00,82.0,61.6,30.00,North,0,0.0,0.0,50,0.00,,SCT030,0.00,VWS V14.01,2013-05-23 23:46:00,
2013-05-23 19:48:00,81.9,61.4,30.00,North,0,0.0,0.0,50,0.00,,SCT030,0.00,VWS V14.01,2013-05-23 23:48:00,
2013-05-23 19:51:00,81.7,61.8,30.00,North,0,0.0,0.0,51,0.00,,SCT030,0.00,VWS V14.01,2013-05-23 23:51:00,
2013-05-23 19:52:00,81.7,61.8,30.00,North,0,0.0,0.0,51,0.00,,SCT030,0.00,VWS V14.01,2013-05-23 23:52:00,
2013-05-23 19:55:00,81.5,61.7,30.00,North,0,0.0,0.0,51,0.00,,SCT030,0.00,VWS V14.01,2013-05-23 23:55:00,
2013-05-23 19:56:00,81.3,62.0,30.00,North,0,0.0,0.0,52,0.00,,SCT030,0.00,VWS V14.01,2013-05-23 23:56:00,
2013-05-23 19:57:00,81.3,62.0,30.00,North,0,0.0,0.0,52,0.00,,SCT030,0.00,VWS V14.01,2013-05-23 23:57:00,
2013-05-23 20:00:00,81.0,62.2,30.00,North,0,0.0,0.0,53,0.00,,SCT030,0.00,VWS V14.01,2013-05-24 00:00:00,
2013-05-23 20:03:00,80.8,62.1,30.00,North,0,0.0,0.0,53,0.00,,SCT030,0.00,VWS V14.01,2013-05-24 00:03:00,
2013-05-23 20:04:00,80.8,62.1,30.00,North,0,0.0,0.0,53,0.00,,SCT030,0.00,VWS V14.01,2013-05-24 00:04:00,
2013-05-23 20:05:00,80.8,62.1,30.00,North,0,0.0,0.0,53,0.00,,SCT030,0.00,VWS V14.01,2013-05-24 00:05:00,
2013-05-23 20:06:00,80.6,62.4,30.00,North,0,0.0,0.0,54,0.00,,SCT030,0.00,VWS V14.01,2013-05-24 00:06:00,
2013-05-23 20:07:00,80.6,62.4,30.00,North,0,0.0,0.0,54,0.00,,SCT030,0.00,VWS V14.01,2013-05-24 00:07:00,
2013-05-23 20:08:00,80.6,62.4,30.00,North,0,0.0,0.0,54,0.00,,SCT030,0.00,VWS V14.01,2013-05-24 00:08:00,
2013-05-23 20:10:00,80.4,62.8,30.00,North,0,0.0,0.0,55,0.00,,SCT030,0.00,VWS V14.01,2013-05-24 00:10:00,
2013-05-23 20:14:00,80.2,63.1,30.00,North,0,0.0,0.0,56,0.00,,SCT030,0.00,VWS V14.01,2013-05-24 00:14:00,
2013-05-23 20:15:00,80.2,63.1,30.00,North,0,0.0,0.0,56,0.00,,SCT030,0.00,VWS V14.01,2013-05-24 00:15:00,
2013-05-23 20:16:00,80.2,63.1,30.00,North,0,0.0,0.0,56,0.00,,SCT030,0.00,VWS V14.01,2013-05-24 00:16:00,
2013-05-23 20:19:00,80.1,63.5,30.00,North,0,0.0,0.0,57,0.00,,SCT030,0.00,VWS V14.01,2013-05-24 00:19:00,
2013-05-23 20:20:00,80.1,63.5,30.00,North,0,0.0,0.0,57,0.00,,SCT030,0.00,VWS V14.01,2013-05-24 00:20:00,
2013-05-23 20:22:00,79.9,63.3,30.00,North,0,0.0,0.0,57,0.00,,SCT030,0.00,VWS V14.01,2013-05-24 00:22:00,
2013-05-23 20:25:00,79.9,63.8,30.00,North,0,0.0,0.0,58,0.00,,SCT030,0.00,VWS V14.01,2013-05-24 00:25:00,
2013-05-23 20:26:00,79.9,63.8,30.00,North,0,0.0,0.0,58,0.00,,SCT030,0.00,VWS V14.01,2013-05-24 00:26:00,
2013-05-23 20:27:00,79.9,63.8,30.00,North,0,0.0,0.0,58,0.00,,SCT030,0.00,VWS V14.01,2013-05-24 00:27:00,
2013-05-23 20:29:00,79.7,63.6,30.00,North,0,0.0,0.0,58,0.00,,SCT030,0.00,VWS V14.01,2013-05-24 00:29:00,
2013-05-23 20:30:00,79.7,63.6,30.00,North,0,0.0,0.0,58,0.00,,SCT030,0.00,VWS V14.01,2013-05-24 00:30:00,
2013-05-23 20:31:00,79.7,64.1,30.00,North,0,0.0,0.0,59,0.00,,SCT030,0.00,VWS V14.01,2013-05-24 00:31:00,
2013-05-23 20:36:00,79.5,64.0,30.00,North,0,0.0,0.0,59,0.00,,SCT030,0.00,VWS V14.01,2013-05-24 00:36:00,
2013-05-23 20:37:00,79.5,64.0,30.00,North,0,0.0,0.0,59,0.00,,SCT030,0.00,VWS V14.01,2013-05-24 00:37:00,
2013-05-23 20:38:00,79.5,64.0,30.00,North,0,0.0,0.0,59,0.00,,SCT030,0.00,VWS V14.01,2013-05-24 00:38:00,
2013-05-23 20:42:00,79.5,64.0,30.00,North,0,0.0,0.0,59,0.00,,SCT030,0.00,VWS V14.01,2013-05-24 00:42:00,
2013-05-23 20:43:00,79.5,64.0,30.00,North,0,0.0,0.0,59,0.00,,SCT030,0.00,VWS V14.01,2013-05-24 00:43:00,
2013-05-23 20:44:00,79.5,64.0,30.00,North,0,0.0,0.0,59,0.00,,SCT030,0.00,VWS V14.01,2013-05-24 00:44:00,
2013-05-23 20:47:00,79.3,63.8,30.00,North,0,0.0,0.0,59,0.00,,SCT030,0.00,VWS V14.01,2013-05-24 00:47:00,
2013-05-23 20:48:00,79.3,63.8,30.00,North,0,0.0,0.0,59,0.00,,SCT030,0.00,VWS V14.01,2013-05-24 00:48:00,
2013-05-23 20:50:00,79.3,63.8,30.00,North,0,0.0,0.0,59,0.00,,SCT030,0.00,VWS V14.01,2013-05-24 00:50:00,
2013-05-23 20:52:00,79.3,63.8,30.00,North,0,0.0,0.0,59,0.00,,SCT030,0.00,VWS V14.01,2013-05-24 00:52:00,
2013-05-23 20:53:00,79.2,63.6,30.00,North,0,0.0,0.0,59,0.00,,SCT030,0.00,VWS V14.01,2013-05-24 00:53:00,
2013-05-23 20:54:00,79.2,63.6,30.00,North,0,0.0,0.0,59,0.00,,SCT030,0.00,VWS V14.01,2013-05-24 00:54:00,
2013-05-23 20:56:00,79.2,63.6,30.00,North,0,0.0,0.0,59,0.00,,SCT030,0.00,VWS V14.01,2013-05-24 00:56:00,
2013-05-23 20:58:00,79.2,63.6,30.00,North,0,0.0,0.0,59,0.00,,SCT030,0.00,VWS V14.01,2013-05-24 00:58:00,
2013-05-23 21:00:00,79.2,64.1,30.00,North,0,0.0,0.0,60,0.00,,SCT030,0.00,VWS V14.01,2013-05-24 01:00:00,
2013-05-23 21:02:00,79.2,64.1,30.00,North,0,0.0,0.0,60,0.00,,SCT030,0.00,VWS V14.01,2013-05-24 01:02:00,
2013-05-23 21:04:00,79.2,64.1,30.00,North,0,0.0,0.0,60,0.00,,SCT030,0.00,VWS V14.01,2013-05-24 01:04:00,
2013-05-23 21:05:00,79.2,64.1,30.00,North,0,0.0,0.0,60,0.00,,SCT030,0.00,VWS V14.01,2013-05-24 01:05:00,
2013-05-23 21:08:00,79.0,63.9,30.00,North,0,0.0,0.0,60,0.00,,SCT030,0.00,VWS V14.01,2013-05-24 01:08:00,
2013-05-23 21:10:00,79.0,63.9,30.00,North,0,0.0,0.0,60,0.00,,SCT030,0.00,VWS V14.01,2013-05-24 01:10:00,
2013-05-23 21:11:00,79.0,63.9,30.00,North,0,0.0,0.0,60,0.00,,SCT030,0.00,VWS V14.01,2013-05-24 01:11:00,
2013-05-23 21:14:00,79.0,63.9,30.03,North,0,0.0,0.0,60,0.00,,SCT030,0.00,VWS V14.01,2013-05-24 01:14:00,
2013-05-23 21:17:00,79.0,63.9,30.03,North,0,0.0,0.0,60,0.00,,SCT030,0.00,VWS V14.01,2013-05-24 01:17:00,
2013-05-23 21:18:00,79.0,63.9,30.03,North,0,0.0,0.0,60,0.00,,SCT030,0.00,VWS V14.01,2013-05-24 01:18:00,
2013-05-23 21:19:00,79.0,63.9,30.03,North,0,0.0,0.0,60,0.00,,SCT030,0.00,VWS V14.01,2013-05-24 01:19:00,
2013-05-23 21:21:00,79.0,63.9,30.03,North,0,0.0,0.0,60,0.00,,SCT030,0.00,VWS V14.01,2013-05-24 01:21:00,
2013-05-23 21:24:00,79.0,63.9,30.03,North,0,0.0,0.0,60,0.00,,SCT030,0.00,VWS V14.01,2013-05-24 01:24:00,
2013-05-23 21:26:00,79.0,63.9,30.03,North,0,0.0,0.0,60,0.00,,SCT030,0.00,VWS V14.01,2013-05-24 01:26:00,
2013-05-23 21:28:00,79.0,64.4,30.03,North,0,0.0,0.0,61,0.00,,SCT030,0.00,VWS V14.01,2013-05-24 01:28:00,
2013-05-23 21:30:00,78.8,64.2,30.03,North,0,0.0,0.0,61,0.00,,SCT030,0.00,VWS V14.01,2013-05-24 01:30:00,
2013-05-23 21:32:00,78.8,64.2,30.03,North,0,0.0,0.0,61,0.00,,SCT030,0.00,VWS V14.01,2013-05-24 01:32:00,
2013-05-23 21:34:00,78.8,64.2,30.03,North,0,0.0,0.0,61,0.00,,SCT030,0.00,VWS V14.01,2013-05-24 01:34:00,
2013-05-23 21:37:00,78.8,64.7,30.03,North,0,0.0,0.0,62,0.00,,SCT030,0.00,VWS V14.01,2013-05-24 01:37:00,
2013-05-23 21:38:00,78.8,64.7,30.03,North,0,0.0,0.0,62,0.00,,SCT030,0.00,VWS V14.01,2013-05-24 01:38:00,
2013-05-23 21:41:00,78.8,64.7,30.03,North,0,0.0,0.0,62,0.00,,SCT030,0.00,VWS V14.01,2013-05-24 01:41:00,
2013-05-23 21:43:00,78.8,64.7,30.03,North,0,0.0,0.0,62,0.00,,SCT030,0.00,VWS V14.01,2013-05-24 01:43:00,
2013-05-23 21:44:00,78.8,64.7,30.03,North,0,0.0,0.0,62,0.00,,SCT030,0.00,VWS V14.01,2013-05-24 01:44:00,
2013-05-23 21:47:00,78.8,64.7,30.03,North,0,0.0,0.0,62,0.00,,SCT030,0.00,VWS V14.01,2013-05-24 01:47:00,
2013-05-23 21:49:00,78.8,65.2,30.03,North,0,0.0,0.0,63,0.00,,SCT030,0.00,VWS V14.01,2013-05-24 01:49:00,
2013-05-23 21:50:00,78.8,65.2,30.03,North,0,0.0,0.0,63,0.00,,SCT030,0.00,VWS V14.01,2013-05-24 01:50:00,
2013-05-23 21:53:00,78.8,65.2,30.03,North,0,0.0,0.0,63,0.00,,SCT030,0.00,VWS V14.01,2013-05-24 01:53:00,
2013-05-23 21:56:00,78.8,65.2,30.03,North,0,0.0,0.0,63,0.00,,SCT030,0.00,VWS V14.01,2013-05-24 01:56:00,
2013-05-23 21:57:00,78.8,65.2,30.03,North,0,0.0,0.0,63,0.00,,SCT030,0.00,VWS V14.01,2013-05-24 01:57:00,
2013-05-23 21:58:00,78.8,65.2,30.03,North,0,0.0,0.0,63,0.00,,SCT030,0.00,VWS V14.01,2013-05-24 01:58:00,
2013-05-23 21:59:00,78.8,65.2,30.03,North,0,0.0,0.0,63,0.00,,SCT030,0.00,VWS V14.01,2013-05-24 01:59:00,
2013-05-23 22:00:00,78.6,65.4,30.03,North,0,0.0,0.0,64,0.00,,SCT030,0.00,VWS V14.01,2013-05-24 02:00:00,
2013-05-23 22:04:00,78.6,65.4,30.03,North,0,0.0,0.0,64,0.00,,SCT030,0.00,VWS V14.01,2013-05-24 02:04:00,
2013-05-23 22:05:00,78.6,65.4,30.03,North,0,0.0,0.0,64,0.00,,SCT030,0.00,VWS V14.01,2013-05-24 02:05:00,
2013-05-23 22:07:00,78.6,65.4,30.03,North,0,0.0,0.0,64,0.00,,SCT030,0.00,VWS V14.01,2013-05-24 02:07:00,
2013-05-23 22:09:00,78.6,65.4,30.03,North,0,0.0,0.0,64,0.00,,SCT030,0.00,VWS V14.01,2013-05-24 02:09:00,
2013-05-23 22:10:00,78.6,65.4,30.03,North,0,0.0,0.0,64,0.00,,SCT030,0.00,VWS V14.01,2013-05-24 02:10:00,
2013-05-23 22:12:00,78.6,65.4,30.03,North,0,0.0,0.0,64,0.00,,SCT030,0.00,VWS V14.01,2013-05-24 02:12:00,
2013-05-23 22:13:00,78.6,65.4,30.03,North,0,0.0,0.0,64,0.00,,SCT030,0.00,VWS V14.01,2013-05-24 02:13:00,
2013-05-23 22:14:00,78.6,65.4,30.03,North,0,0.0,0.0,64,0.00,,SCT030,0.00,VWS V14.01,2013-05-24 02:14:00,
2013-05-23 22:15:00,78.6,65.4,30.03,North,0,0.0,0.0,64,0.00,,SCT030,0.00,VWS V14.01,2013-05-24 02:15:00,
2013-05-23 22:17:00,78.6,65.4,30.03,North,0,0.0,0.0,64,0.00,,SCT030,0.00,VWS V14.01,2013-05-24 02:17:00,
2013-05-23 22:19:00,78.6,65.4,30.03,North,0,0.0,0.0,64,0.00,,SCT030,0.00,VWS V14.01,2013-05-24 02:19:00,
2013-05-23 22:20:00,78.6,65.4,30.03,North,0,0.0,0.0,64,0.00,,SCT030,0.00,VWS V14.01,2013-05-24 02:20:00,
2013-05-23 22:26:00,78.4,65.3,30.03,North,0,0.0,0.0,64,0.00,,SCT030,0.00,VWS V14.01,2013-05-24 02:26:00,
2013-05-23 22:28:00,78.4,65.3,30.03,North,0,0.0,0.0,64,0.00,,SCT030,0.00,VWS V14.01,2013-05-24 02:28:00,
2013-05-23 22:29:00,78.4,65.3,30.03,North,0,0.0,0.0,64,0.00,,SCT030,0.00,VWS V14.01,2013-05-24 02:29:00,
2013-05-23 22:30:00,78.4,65.3,30.03,North,0,0.0,0.0,64,0.00,,SCT030,0.00,VWS V14.01,2013-05-24 02:30:00,
2013-05-23 22:33:00,78.4,65.7,30.03,North,0,0.0,0.0,65,0.00,,CLR,0.00,VWS V14.01,2013-05-24 02:33:00,
2013-05-23 22:34:00,78.4,65.7,30.03,North,0,0.0,0.0,65,0.00,,CLR,0.00,VWS V14.01,2013-05-24 02:34:00,
2013-05-23 22:38:00,78.4,65.7,30.03,North,0,0.0,0.0,65,0.00,,CLR,0.00,VWS V14.01,2013-05-24 02:38:00,
2013-05-23 22:39:00,78.4,65.7,30.03,North,0,0.0,0.0,65,0.00,,CLR,0.00,VWS V14.01,2013-05-24 02:39:00,
2013-05-23 22:40:00,78.4,65.7,30.03,North,0,0.0,0.0,65,0.00,,CLR,0.00,VWS V14.01,2013-05-24 02:40:00,
2013-05-23 22:45:00,78.3,65.5,30.03,North,0,0.0,0.0,65,0.00,,CLR,0.00,VWS V14.01,2013-05-24 02:45:00,
2013-05-23 22:47:00,78.3,65.5,30.03,North,0,0.0,0.0,65,0.00,,CLR,0.00,VWS V14.01,2013-05-24 02:47:00,
2013-05-23 22:50:00,78.3,66.0,30.03,North,0,0.0,0.0,66,0.00,,CLR,0.00,VWS V14.01,2013-05-24 02:50:00,
2013-05-23 22:52:00,78.3,66.0,30.03,North,0,0.0,0.0,66,0.00,,CLR,0.00,VWS V14.01,2013-05-24 02:52:00,
2013-05-23 22:53:00,78.3,66.0,30.03,North,0,0.0,0.0,66,0.00,,CLR,0.00,VWS V14.01,2013-05-24 02:53:00,
2013-05-23 22:55:00,78.3,66.0,30.03,North,0,0.0,0.0,66,0.00,,CLR,0.00,VWS V14.01,2013-05-24 02:55:00,
2013-05-23 22:57:00,78.3,66.4,30.03,North,0,0.0,0.0,67,0.00,,CLR,0.00,VWS V14.01,2013-05-24 02:57:00,
2013-05-23 22:59:00,78.3,66.4,30.03,North,0,0.0,0.0,67,0.00,,CLR,0.00,VWS V14.01,2013-05-24 02:59:00,
2013-05-23 23:01:00,78.3,66.4,30.03,North,0,0.0,0.0,67,0.00,,CLR,0.00,VWS V14.01,2013-05-24 03:01:00,
2013-05-23 23:03:00,78.3,66.4,30.03,North,0,0.0,0.0,67,0.00,,CLR,0.00,VWS V14.01,2013-05-24 03:03:00,
2013-05-23 23:06:00,78.4,66.6,30.03,North,0,0.0,0.0,67,0.00,,CLR,0.00,VWS V14.01,2013-05-24 03:06:00,
2013-05-23 23:08:00,78.4,66.6,30.03,North,0,0.0,0.0,67,0.00,,CLR,0.00,VWS V14.01,2013-05-24 03:08:00,
2013-05-23 23:11:00,78.4,66.6,30.03,North,0,0.0,0.0,67,0.00,,CLR,0.00,VWS V14.01,2013-05-24 03:11:00,
2013-05-23 23:13:00,78.4,66.6,30.03,North,0,0.0,0.0,67,0.00,,CLR,0.00,VWS V14.01,2013-05-24 03:13:00,
2013-05-23 23:14:00,78.4,66.6,30.03,North,0,0.0,0.0,67,0.00,,CLR,0.00,VWS V14.01,2013-05-24 03:14:00,
2013-05-23 23:16:00,78.4,66.6,30.03,North,0,0.0,0.0,67,0.00,,CLR,0.00,VWS V14.01,2013-05-24 03:16:00,
2013-05-23 23:17:00,78.6,67.2,30.03,North,0,0.0,0.0,68,0.00,,CLR,0.00,VWS V14.01,2013-05-24 03:17:00,
2013-05-23 23:20:00,78.6,67.2,30.03,North,0,0.0,0.0,68,0.00,,CLR,0.00,VWS V14.01,2013-05-24 03:20:00,
2013-05-23 23:22:00,78.6,67.2,30.03,North,0,0.0,0.0,68,0.00,,CLR,0.00,VWS V14.01,2013-05-24 03:22:00,
2013-05-23 23:24:00,78.6,67.2,30.03,North,0,0.0,0.0,68,0.00,,CLR,0.00,VWS V14.01,2013-05-24 03:24:00,
2013-05-23 23:26:00,78.6,67.2,30.03,North,0,0.0,0.0,68,0.00,,CLR,0.00,VWS V14.01,2013-05-24 03:26:00,
2013-05-23 23:30:00,78.6,67.2,30.03,North,0,0.0,0.0,68,0.00,,CLR,0.00,VWS V14.01,2013-05-24 03:30:00,
2013-05-23 23:31:00,78.6,67.2,30.03,North,0,0.0,0.0,68,0.00,,CLR,0.00,VWS V14.01,2013-05-24 03:31:00,
2013-05-23 23:32:00,78.6,67.2,30.03,North,0,0.0,0.0,68,0.00,,CLR,0.00,VWS V14.01,2013-05-24 03:32:00,
2013-05-23 23:34:00,78.6,67.2,30.03,North,0,0.0,0.0,68,0.00,,CLR,0.00,VWS V14.01,2013-05-24 03:34:00,
2013-05-23 23:36:00,78.6,67.2,30.03,North,0,0.0,0.0,68,0.00,,CLR,0.00,VWS V14.01,2013-05-24 03:36:00,
2013-05-23 23:37:00,78.6,67.2,30.03,North,0,0.0,0.0,68,0.00,,CLR,0.00,VWS V14.01,2013-05-24 03:37:00,
2013-05-23 23:39:00,78.6,67.2,30.03,North,0,0.0,0.0,68,0.00,,CLR,0.00,VWS V14.01,2013-05-24 03:39:00,
2013-05-23 23:42:00,78.6,67.2,30.03,North,0,0.0,0.0,68,0.00,,CLR,0.00,VWS V14.01,2013-05-24 03:42:00,
2013-05-23 23:44:00,78.6,67.2,30.03,North,0,0.0,0.0,68,0.00,,CLR,0.00,VWS V14.01,2013-05-24 03:44:00,
2013-05-23 23:46:00,78.6,67.2,30.03,North,0,0.0,0.0,68,0.00,,CLR,0.00,VWS V14.01,2013-05-24 03:46:00,
2013-05-23 23:49:00,78.4,67.0,30.03,North,0,0.0,0.0,68,0.00,,CLR,0.00,VWS V14.01,2013-05-24 03:49:00,
2013-05-23 23:51:00,78.4,67.0,30.03,North,0,0.0,0.0,68,0.00,,CLR,0.00,VWS V14.01,2013-05-24 03:51:00,
2013-05-23 23:52:00,78.4,67.0,30.03,North,0,0.0,0.0,68,0.00,,CLR,0.00,VWS V14.01,2013-05-24 03:52:00,
2013-05-23 23:56:00,78.4,67.0,30.03,North,0,0.0,0.0,68,0.00,,CLR,0.00,VWS V14.01,2013-05-24 03:56:00,
2013-05-23 23:58:00,78.4,67.0,30.03,North,0,0.0,0.0,68,0.00,,CLR,0.00,VWS V14.01,2013-05-24 03:58:00,